GW3830 Weather Reports


Display with metric or nautical units.
time (UTC)temp
F
wind
direction
speed
MPH
gust
MPH
rain 1hr
in
rain 24hr
in
rain mn
in
humidity
%
barometer
mb
20260508092449 39 323 0.0 0.0 0.00 0.00 0.00 66 1013.1
20260508091948 40 312 0.0 0.0 0.00 0.00 0.00 66 1013.3
20260508091444 39 315 0.0 0.0 0.00 0.00 0.00 66 1013.1
20260508090941 40 4 0.0 0.0 0.00 0.00 0.00 66 1013.1
20260508090440 39 345 0.0 0.0 0.00 0.00 0.00 67 1013.0
20260508085935 39 341 0.0 0.0 0.00 0.00 0.00 67 1012.9
20260508085427 40 331 0.0 0.0 0.00 0.00 0.00 66 1012.8
20260508084923 40 353 0.0 0.0 0.00 0.00 0.00 66 1012.9
20260508084420 40 310 0.0 0.0 0.00 0.00 0.00 66 1012.7
20260508083918 39 4 0.0 0.0 0.00 0.00 0.00 67 1012.7
20260508083415 39 304 0.0 0.0 0.00 0.00 0.00 69 1012.7
20260508082914 38 348 0.0 0.0 0.00 0.00 0.00 71 1012.7
20260508082412 39 352 0.0 0.0 0.00 0.00 0.00 72 1013.1
20260508081910 39 4 0.0 0.0 0.00 0.00 0.00 70 1013.0
20260508081407 39 354 0.0 0.0 0.00 0.00 0.00 70 1012.9
20260508080903 39 320 0.0 0.0 0.00 0.00 0.00 69 1012.8
20260508080402 39 322 0.0 0.0 0.00 0.00 0.00 69 1013.0
20260508075857 39 323 0.0 0.0 0.00 0.00 0.00 69 1013.1
20260508075355 39 335 0.0 0.0 0.00 0.00 0.00 69 1012.9
20260508074852 39 313 0.0 0.0 0.00 0.00 0.00 70 1012.8
20260508074349 39 29 0.0 0.0 0.00 0.00 0.00 71 1012.9
20260508073846 39 351 0.0 0.0 0.00 0.00 0.00 70 1012.7
20260508073344 39 333 0.0 0.0 0.00 0.00 0.00 70 1012.9
20260508072840 39 330 0.0 0.0 0.00 0.00 0.00 70 1012.6
20260508072337 39 322 0.0 0.0 0.00 0.00 0.00 70 1012.7
20260508071834 39 20 0.0 0.0 0.00 0.00 0.00 70 1012.9
20260508071333 39 344 0.0 0.0 0.00 0.00 0.00 70 1012.8
20260508070830 39 326 0.0 0.0 0.00 0.00 0.00 70 1012.7
20260508070328 39 313 0.0 0.0 0.00 0.00 0.00 71 1012.7
20260508065825 39 338 0.0 0.0 0.00 0.00 0.00 71 1012.9
20260508065323 39 17 0.0 0.0 0.00 0.00 0.00 71 1012.8
20260508064821 39 298 0.0 0.0 0.00 0.00 0.00 72 1012.7
20260508064318 39 331 0.0 0.0 0.00 0.00 0.00 71 1012.7
20260508063816 39 5 0.0 0.0 0.00 0.00 0.00 71 1012.8
20260508063314 39 313 0.0 0.0 0.00 0.00 0.00 71 1013.1
20260508062810 39 328 0.0 0.0 0.00 0.00 0.00 71 1012.9
20260508062308 39 35 0.0 0.0 0.00 0.00 0.00 71 1013.0
20260508061805 40 308 0.0 0.0 0.00 0.00 0.00 71 1013.0
20260508061302 40 8 0.0 0.0 0.00 0.00 0.00 72 1013.1
20260508060759 40 339 0.0 0.0 0.00 0.00 0.00 71 1012.9
20260508060257 40 0 0.0 0.0 0.00 0.00 0.00 71 1013.1
20260508055751 40 299 0.0 0.0 0.00 0.00 0.00 71 1013.3
20260508055249 40 325 0.0 0.0 0.00 0.00 0.00 72 1013.1
20260508054745 39 333 0.0 0.0 0.00 0.00 0.00 74 1012.9
20260508054243 39 5 0.0 0.0 0.00 0.00 0.00 75 1013.0
20260508053740 39 295 0.0 0.0 0.00 0.00 0.00 76 1013.0
20260508053237 39 322 0.0 0.0 0.00 0.00 0.00 78 1013.0
20260508052734 39 14 0.0 0.0 0.00 0.00 0.00 79 1012.9
20260508052232 39 39 0.0 0.0 0.00 0.00 0.00 80 1013.1
20260508051728 39 38 0.0 0.0 0.00 0.00 0.00 80 1012.8
20260508051223 39 344 0.0 0.0 0.00 0.00 0.00 80 1012.8
20260508050720 39 328 0.0 0.0 0.00 0.00 0.00 81 1012.6
20260508050217 39 319 0.0 0.0 0.00 0.00 0.00 81 1012.7
20260508045712 39 15 0.0 0.0 0.00 0.00 0.00 81 1012.8
20260508045211 39 32 0.0 0.0 0.00 0.00 0.00 81 1012.5
20260508044708 39 349 0.0 0.0 0.00 0.00 0.00 80 1012.6
20260508044204 39 355 0.0 0.0 0.00 0.00 0.00 80 1012.9
20260508043700 40 307 0.0 0.0 0.00 0.00 0.00 79 1012.8
20260508043158 40 332 0.0 0.0 0.00 0.00 0.00 78 1012.7
20260508042654 40 345 0.0 0.0 0.00 0.00 0.00 77 1012.6
20260508042152 40 326 0.0 0.0 0.00 0.00 0.00 76 1012.9
20260508041648 40 348 0.0 0.0 0.00 0.00 0.00 76 1012.5
20260508041145 41 336 0.0 0.0 0.00 0.00 0.00 77 1012.5
20260508040641 41 328 0.0 0.0 0.00 0.00 0.00 79 1012.5
20260508040139 41 44 0.0 0.0 0.00 0.00 0.00 79 1012.6
20260508035636 41 333 0.0 0.0 0.00 0.03 0.03 78 1012.6
20260508035133 41 15 0.0 0.0 0.00 0.03 0.03 77 1012.5
20260508034630 41 48 0.0 0.0 0.00 0.03 0.03 76 1012.4
20260508034127 42 323 0.0 0.0 0.00 0.03 0.03 75 1012.5
20260508033625 42 24 0.0 0.0 0.00 0.03 0.03 74 1012.5
20260508033123 42 35 0.0 0.0 0.00 0.03 0.03 74 1012.4
20260508032619 43 310 0.0 0.0 0.00 0.03 0.03 73 1012.2
20260508032116 43 11 0.0 0.0 0.00 0.03 0.03 73 1012.5
20260508031614 43 328 0.0 0.0 0.00 0.03 0.03 73 1012.4
20260508031109 43 352 0.0 0.0 0.00 0.03 0.03 72 1012.2
20260508030606 44 339 0.0 0.0 0.00 0.03 0.03 72 1012.5
20260508030104 44 30 0.0 0.0 0.00 0.03 0.03 71 1012.3
20260508025600 44 21 0.0 0.0 0.00 0.03 0.03 71 1012.2
20260508025057 44 344 0.0 0.0 0.00 0.03 0.03 72 1012.3
20260508024553 44 308 0.0 0.0 0.00 0.03 0.03 72 1011.9
20260508024050 44 323 0.0 0.0 0.00 0.03 0.03 72 1012.2
20260508023546 44 332 0.0 0.0 0.00 0.03 0.03 71 1012.1
20260508023044 44 66 0.0 0.0 0.00 0.03 0.03 70 1011.8
20260508022540 45 331 0.0 0.0 0.00 0.03 0.03 71 1011.8
20260508022037 45 332 0.0 0.0 0.00 0.03 0.03 70 1011.6
20260508021533 45 353 0.0 0.0 0.00 0.03 0.03 70 1011.7
20260508021029 45 256 0.0 0.0 0.00 0.03 0.03 70 1011.7
20260508020526 46 344 0.0 0.0 0.00 0.03 0.03 70 1011.5
20260508020024 46 3 0.0 0.0 0.00 0.03 0.03 69 1011.5
20260508015521 46 353 0.0 0.0 0.00 0.03 0.03 69 1011.4
20260508015018 46 89 2.0 6.0 0.00 0.03 0.03 70 1011.6
20260508014515 46 38 0.0 0.0 0.00 0.03 0.03 69 1011.3
20260508014011 46 332 0.0 0.0 0.00 0.03 0.03 68 1011.5
20260508013507 47 2 1.0 6.0 0.00 0.03 0.03 68 1011.6
20260508013005 46 55 0.0 0.0 0.00 0.03 0.03 68 1011.3
20260508012501 47 21 0.0 0.0 0.00 0.03 0.03 68 1011.1
20260508011959 47 279 0.0 0.0 0.00 0.03 0.03 68 1011.2
20260508011457 47 290 0.0 0.0 0.00 0.03 0.03 67 1011.1
20260508010954 47 12 0.0 0.0 0.00 0.03 0.03 67 1011.1
20260508010451 47 90 0.0 0.0 0.00 0.03 0.03 67 1010.8
20260508005948 47 340 0.0 0.0 0.00 0.03 0.03 67 1010.6
20260508005445 47 47 0.0 0.0 0.00 0.03 0.03 66 1010.7
20260508004941 48 337 0.0 0.0 0.00 0.03 0.03 66 1010.8
20260508004437 48 342 1.0 3.0 0.00 0.03 0.03 65 1010.7
20260508003934 48 341 3.0 9.0 0.00 0.03 0.03 65 1010.7
20260508003431 48 332 0.0 0.0 0.00 0.03 0.03 65 1010.7
20260508002928 48 305 0.0 0.0 0.00 0.03 0.03 65 1010.7
20260508002425 49 323 0.0 0.0 0.00 0.03 0.03 65 1010.7
20260508001921 49 329 0.0 0.0 0.00 0.03 0.03 66 1010.5
20260508001417 49 36 0.0 0.0 0.00 0.03 0.03 65 1010.5
20260508000914 50 42 0.0 1.0 0.00 0.03 0.03 64 1010.5
20260508000412 50 350 0.0 0.0 0.00 0.03 0.03 64 1010.3
20260507235907 50 261 0.0 0.0 0.00 0.03 0.03 63 1010.3
20260507235404 51 336 2.0 8.0 0.00 0.03 0.03 62 1010.5
20260507234901 51 336 7.0 9.0 0.00 0.03 0.03 61 1010.3
20260507234359 51 323 1.0 3.0 0.00 0.03 0.03 62 1010.3
20260507233854 51 346 0.0 0.0 0.00 0.03 0.03 62 1010.2
20260507233351 51 197 0.0 3.0 0.00 0.03 0.03 63 1010.3
20260507232849 51 359 0.0 0.0 0.00 0.03 0.03 62 1010.2
20260507232345 52 42 1.0 5.0 0.00 0.03 0.03 60 1010.4
20260507231843 53 286 0.0 0.0 0.00 0.03 0.03 57 1010.2
20260507231339 53 267 5.0 10.0 0.00 0.03 0.03 58 1010.0
20260507230836 53 288 1.0 3.0 0.00 0.03 0.03 59 1010.3
20260507230333 52 77 3.0 8.0 0.00 0.03 0.03 60 1010.2
20260507225833 52 310 7.0 13.0 0.00 0.03 0.03 60 1009.9
20260507225329 52 15 0.0 0.0 0.00 0.03 0.03 60 1010.2
20260507224826 52 266 0.0 2.0 0.00 0.03 0.03 61 1010.2
20260507224322 52 39 2.0 9.0 0.00 0.03 0.03 60 1009.9
20260507223818 52 20 3.0 7.0 0.00 0.03 0.03 59 1010.1
20260507223315 53 19 5.0 11.0 0.00 0.03 0.03 58 1009.8
20260507222812 53 328 0.0 0.0 0.00 0.03 0.03 57 1009.9
20260507222308 53 146 1.0 2.0 0.00 0.03 0.03 58 1009.8
20260507221806 53 195 0.0 0.0 0.00 0.03 0.03 58 1009.8
20260507221302 53 319 4.0 7.0 0.00 0.03 0.03 57 1009.6
20260507220758 53 24 0.0 0.0 0.00 0.03 0.03 59 1009.8
20260507220257 53 309 3.0 11.0 0.00 0.03 0.03 59 1009.4
20260507215752 53 340 0.0 2.0 0.00 0.03 0.03 60 1009.3
20260507215250 53 310 1.0 10.0 0.00 0.03 0.03 60 1009.4
20260507214747 52 300 0.0 0.0 0.00 0.03 0.03 60 1009.5
20260507214244 53 296 11.0 14.0 0.00 0.03 0.03 59 1009.4
20260507213739 53 279 10.0 14.0 0.00 0.03 0.03 60 1009.4
20260507213236 53 346 3.0 6.0 0.00 0.03 0.03 62 1009.5
20260507212733 52 352 0.0 2.0 0.00 0.03 0.03 62 1009.3
20260507212229 52 147 0.0 0.0 0.00 0.03 0.03 61 1009.1
20260507211726 52 330 2.0 6.0 0.00 0.03 0.03 62 1009.0
20260507211222 52 295 0.0 1.0 0.00 0.03 0.03 62 1009.0
20260507210719 53 15 0.0 0.0 0.00 0.03 0.03 62 1009.0
20260507210216 54 267 3.0 7.0 0.00 0.03 0.03 61 1009.0
20260507205713 53 315 4.0 9.0 0.00 0.03 0.03 62 1009.0
20260507205209 52 230 3.0 8.0 0.00 0.03 0.03 63 1009.0
20260507204706 52 327 4.0 10.0 0.00 0.03 0.03 62 1009.1
20260507204204 53 315 5.0 10.0 0.00 0.03 0.03 62 1009.0
20260507203702 53 303 1.0 6.0 0.00 0.03 0.03 63 1009.0
20260507203158 52 309 2.0 7.0 0.00 0.03 0.03 64 1009.2
20260507202654 52 325 1.0 8.0 0.00 0.03 0.03 64 1008.9
20260507202150 54 305 3.0 7.0 0.00 0.03 0.03 62 1009.0
20260507201645 54 329 0.0 1.0 0.00 0.03 0.03 61 1008.9
20260507201143 54 10 5.0 10.0 0.00 0.03 0.03 60 1009.0
20260507200639 53 171 2.0 6.0 0.00 0.03 0.03 63 1009.3
20260507200135 54 18 9.0 14.0 0.00 0.03 0.03 60 1009.3
20260507195632 54 347 3.0 8.0 0.00 0.03 0.03 64 1009.4
20260507195129 53 273 4.0 8.0 0.00 0.03 0.03 64 1009.6
20260507194626 53 354 8.0 13.0 0.00 0.03 0.03 64 1009.4
20260507194121 53 304 0.0 3.0 0.00 0.03 0.03 64 1009.2
20260507193618 52 261 5.0 8.0 0.00 0.03 0.03 65 1009.4
20260507193115 52 356 5.0 10.0 0.00 0.03 0.03 67 1009.5
20260507192612 52 12 1.0 5.0 0.00 0.03 0.03 69 1009.4
20260507192109 51 307 7.0 11.0 0.00 0.03 0.03 71 1009.3
20260507191604 51 51 2.0 6.0 0.00 0.03 0.03 70 1009.5
20260507191101 52 103 3.0 8.0 0.00 0.03 0.03 69 1009.8
20260507190558 52 327 3.0 7.0 0.00 0.03 0.03 68 1009.6
20260507190057 51 316 1.0 6.0 0.00 0.03 0.03 69 1009.8
20260507185555 51 343 5.0 11.0 0.00 0.03 0.03 69 1009.8
20260507185051 51 358 10.0 14.0 0.00 0.03 0.03 69 1009.4
20260507184550 52 318 10.0 16.0 0.00 0.03 0.03 66 1010.0
20260507184047 53 320 1.0 5.0 0.00 0.03 0.03 65 1009.9
20260507183543 52 332 0.0 0.0 0.00 0.03 0.03 66 1009.6
20260507183040 53 10 5.0 6.0 0.00 0.03 0.03 64 1009.6
20260507182536 52 41 0.0 0.0 0.00 0.03 0.03 66 1009.8
20260507182032 53 307 5.0 14.0 0.00 0.03 0.03 65 1009.6
20260507181530 54 318 7.0 13.0 0.00 0.03 0.03 62 1009.6
20260507181026 55 321 0.0 1.0 0.00 0.03 0.03 63 1009.6
20260507180522 55 343 1.0 3.0 0.00 0.03 0.03 62 1009.6
20260507180019 52 347 1.0 3.0 0.00 0.03 0.03 64 1009.4
20260507175515 53 52 0.0 0.0 0.00 0.03 0.03 63 1009.6
20260507175013 52 262 1.0 3.0 0.00 0.03 0.03 64 1009.8
20260507174510 51 315 0.0 0.0 0.00 0.03 0.03 66 1009.9
20260507174008 51 38 4.0 10.0 0.00 0.03 0.03 64 1010.1
20260507173504 51 15 6.0 11.0 0.00 0.03 0.03 65 1010.1
20260507173002 51 302 0.0 1.0 0.00 0.03 0.03 65 1009.9
20260507172457 51 287 0.0 0.0 0.00 0.03 0.03 66 1009.5
20260507171954 50 346 2.0 7.0 0.00 0.03 0.03 66 1009.9
20260507171450 50 330 4.0 9.0 0.00 0.03 0.03 66 1009.8
20260507170947 51 6 2.0 6.0 0.00 0.03 0.03 66 1010.0
20260507170444 50 135 0.0 0.0 0.00 0.03 0.03 67 1010.0
20260507165940 50 11 5.0 9.0 0.00 0.03 0.03 66 1009.9
20260507165436 51 9 3.0 8.0 0.00 0.03 0.03 67 1010.1
20260507164932 51 318 0.0 0.0 0.00 0.03 0.03 68 1010.1
20260507164430 51 311 5.0 9.0 0.00 0.03 0.03 67 1010.1
20260507163926 51 204 0.0 2.0 0.00 0.03 0.03 66 1010.2
20260507163424 50 334 0.0 0.0 0.00 0.03 0.03 70 1010.2
20260507162921 51 5 7.0 11.0 0.00 0.03 0.03 69 1010.2
20260507162416 49 35 0.0 0.0 0.00 0.03 0.03 70 1009.9
20260507161914 50 354 0.0 0.0 0.00 0.03 0.03 70 1010.1
20260507161409 49 32 5.0 7.0 0.00 0.03 0.03 71 1010.1
20260507160906 48 9 0.0 0.0 0.00 0.03 0.03 74 1010.2
20260507160402 49 25 11.0 14.0 0.00 0.03 0.03 72 1010.3
20260507155858 48 347 10.0 11.0 0.00 0.03 0.03 73 1010.2
20260507155354 48 269 1.0 2.0 0.00 0.03 0.03 73 1010.4
20260507154851 48 257 1.0 2.0 0.00 0.03 0.03 74 1010.4
20260507154348 48 344 2.0 10.0 0.00 0.03 0.03 74 1010.4
20260507153846 48 332 4.0 7.0 0.00 0.03 0.03 73 1010.1
20260507153342 48 338 0.0 3.0 0.00 0.03 0.03 72 1010.2
20260507152838 48 338 0.0 0.0 0.00 0.03 0.03 73 1010.4
20260507152334 47 307 0.0 2.0 0.00 0.03 0.03 74 1010.1
20260507151831 47 310 5.0 8.0 0.00 0.03 0.03 75 1010.4
20260507151327 46 39 0.0 0.0 0.00 0.03 0.03 76 1010.4
20260507150824 46 344 5.0 9.0 0.00 0.03 0.03 75 1010.5
20260507150321 47 339 6.0 13.0 0.00 0.03 0.03 75 1010.3
20260507145817 47 1 2.0 6.0 0.00 0.03 0.03 77 1010.5
20260507145314 47 342 5.0 9.0 0.00 0.03 0.03 77 1010.4
20260507144811 47 263 2.0 6.0 0.00 0.03 0.03 78 1010.7
20260507144308 46 328 0.0 0.0 0.00 0.03 0.03 77 1010.3
20260507143804 47 13 11.0 14.0 0.00 0.03 0.03 79 1010.5
20260507143302 46 32 1.0 6.0 0.00 0.03 0.03 81 1010.4
20260507142757 46 350 4.0 8.0 0.00 0.03 0.03 83 1010.4
20260507142254 45 313 4.0 8.0 0.00 0.03 0.03 85 1010.4
20260507141751 45 353 2.0 5.0 0.00 0.03 0.03 87 1010.6
20260507141248 45 346 4.0 7.0 0.00 0.03 0.03 88 1010.5
20260507140744 44 346 0.0 0.0 0.00 0.03 0.03 90 1010.5
20260507140242 44 332 3.0 6.0 0.00 0.03 0.03 90 1010.7
20260507135738 44 346 4.0 6.0 0.00 0.03 0.03 91 1010.6
20260507135236 44 358 4.0 8.0 0.00 0.03 0.03 90 1010.5
20260507134732 44 49 2.0 7.0 0.00 0.03 0.03 91 1010.5
20260507134228 44 326 5.0 10.0 0.00 0.03 0.03 93 1010.6
20260507133724 44 332 7.0 13.0 0.00 0.03 0.03 94 1010.7
20260507133221 43 260 4.0 9.0 0.00 0.03 0.03 95 1010.8
20260507132719 43 306 2.0 8.0 0.00 0.03 0.03 97 1010.6
20260507132215 43 346 3.0 7.0 0.00 0.03 0.03 97 1010.8
20260507131712 43 32 2.0 7.0 0.00 0.03 0.03 98 1010.6
20260507131210 43 347 5.0 8.0 0.00 0.03 0.03 98 1011.1
20260507130706 43 0 0.0 0.0 0.00 0.03 0.03 98 1011.0
20260507130204 43 341 2.0 2.0 0.00 0.03 0.03 99 1011.1
20260507125702 43 3 0.0 0.0 0.00 0.03 0.03 99 1010.7
20260507125200 43 329 3.0 6.0 0.00 0.03 0.03 99 1011.0
20260507124656 43 334 3.0 7.0 0.00 0.03 0.03 99 1010.8
20260507124153 43 330 3.0 6.0 0.00 0.03 0.03 99 1011.3
20260507123652 43 306 1.0 3.0 0.00 0.03 0.03 99 1011.4
20260507123148 43 2 3.0 6.0 0.00 0.03 0.03 99 1011.1
20260507122643 43 348 1.0 5.0 0.00 0.03 0.03 99 1011.5
20260507122139 43 341 0.0 0.0 0.00 0.03 0.03 99 1011.0
20260507121635 43 271 0.0 0.0 0.00 0.03 0.03 99 1011.0
20260507121132 43 74 0.0 2.0 0.00 0.03 0.03 99 1010.7
20260507120628 43 6 3.0 6.0 0.00 0.03 0.03 99 1010.8
20260507120125 43 330 0.0 2.0 0.00 0.03 0.03 99 1010.6
20260507115621 43 327 0.0 1.0 0.00 0.03 0.03 99 1010.7
20260507115117 43 9 0.0 0.0 0.00 0.03 0.03 99 1010.4
20260507114613 43 337 2.0 6.0 0.00 0.03 0.03 99 1010.5
20260507114110 43 45 3.0 5.0 0.00 0.03 0.03 99 1010.8
20260507113608 43 8 3.0 6.0 0.00 0.03 0.03 99 1010.6
20260507113104 43 324 1.0 5.0 0.00 0.03 0.03 99 1010.6
20260507112603 43 14 3.0 7.0 0.00 0.03 0.03 99 1010.6
20260507112059 43 339 1.0 5.0 0.00 0.03 0.03 99 1010.7
20260507111556 43 335 0.0 0.0 0.00 0.03 0.03 99 1010.7
20260507111053 43 1 8.0 11.0 0.00 0.03 0.03 99 1010.3
20260507110549 43 323 0.0 2.0 0.00 0.03 0.03 99 1010.4
20260507110046 43 37 0.0 0.0 0.00 0.03 0.03 99 1010.5
20260507105542 43 14 0.0 0.0 0.00 0.03 0.03 99 1010.1
20260507105038 43 325 0.0 0.0 0.00 0.03 0.03 99 1010.1
20260507104536 43 43 0.0 0.0 0.00 0.03 0.03 99 1010.3
20260507104032 43 347 0.0 0.0 0.00 0.03 0.03 99 1010.4
20260507103528 43 339 0.0 0.0 0.00 0.03 0.03 99 1010.1
20260507103025 43 13 0.0 2.0 0.00 0.03 0.03 99 1010.4
20260507102522 43 17 0.0 1.0 0.00 0.03 0.03 99 1010.2
20260507102018 43 302 4.0 8.0 0.00 0.03 0.03 99 1010.1
20260507101514 43 349 6.0 9.0 0.00 0.03 0.03 99 1010.0
20260507101010 43 346 2.0 3.0 0.00 0.03 0.03 99 1010.0
20260507100508 43 22 5.0 8.0 0.00 0.03 0.03 99 1010.0
20260507100005 43 356 4.0 8.0 0.00 0.03 0.03 99 1009.9
20260507095503 43 25 4.0 7.0 0.00 0.03 0.03 99 1010.0
20260507094959 44 25 2.0 3.0 0.00 0.03 0.03 99 1009.8
20260507094456 44 16 3.0 5.0 0.00 0.03 0.03 99 1009.9
20260507093953 45 351 2.0 7.0 0.00 0.03 0.03 99 1009.9
20260507093450 45 297 2.0 7.0 0.00 0.03 0.03 99 1009.9
20260507092949 45 325 2.0 7.0 0.00 0.03 0.03 99 1009.9